Location: Crab Orchard
(37.7292°N, 88.8042°W)
Time: 23:23:33
(UTC+00:00)

COSMO-SKYMED 1 - Pass Details

Date: 08 December 2019
Orbit: 621 x 623 km, 97.9° (Epoch: 20 January)

Event Time Altitude Azimuth Distance (km) Brightness Sun altitude
Exits shadow 23:21:28 - 27° (NNE) 2,531 5.2 -8.9°
Reaches altitude 10° 23:22:54 10° 34° (NE) 1,999 4.7 -9.2°
Maximum altitude 23:26:47 31° 97° (E) 1,090 3.4 -9.9°
Drops below altitude 10° 23:30:37 10° 160° (SSE) 1,984 5.2 -10.6°
Sets 23:33:00 0° 171° (S) 2,885 6.1 -11.0°
